Location: Mohawk View
(42.7837°N, 73.7885°W)
Time: 17:01:13
(UTC+00:00)

ERS-1 Rocket - Pass Details

Date: 17 June 2021
Orbit: 752 x 758 km, 98.4° (Epoch: 01 August)

Event Time Altitude Azimuth Distance (km) Brightness Sun altitude
Exits shadow 02:24:37 23° 155° (SSE) 1,552 4.0 -15.2°
Maximum altitude 02:27:44 75° 75° (ENE) 789 3.0 -15.5°
Drops below altitude 10° 02:32:47 10° 350° (N) 2,298 6.5 -16.1°
Sets 02:35:06 0° 349° (N) 3,227 7.5 -16.3°
